Volver al catálogo

COSMOS 2146

ActivoNavegaciónPO
NORAD 21302·PAYLOAD·🇷🇺 Russia

Lanzado May 16, 1991 desde Plesetsk Cosmodrome

Loading…

Próximos Pases (próximas 24 horas)

TLE

ActualizadoSource: Space-Track

Época: Sep 14, 2026, 22:16 UTC

1 21302U 91033D   26257.92821689  .00000003  00000-0 -43495-4 0  9994
2 21302  82.5721 236.8437 0015839 180.7343 179.3729 12.64555170630665

Sigue COSMOS 2146 en tiempo real con AllMySat

Download on the App Store